Location: Bacea
(45.9500°N, 22.6667°E)
Time: 03:04:17
(UTC+00:00)

Cosmos 2263 Rocket - Pass Details

Date: 03 June 2022
Orbit: 825 x 847 km, 71.0° (Epoch: 04 July)

Event Time Altitude Azimuth Distance (km) Brightness Sun altitude
Rises 19:25:31 0° 322° (NW) 3,376 7.6 -10.2°
Reaches altitude 10° 19:28:24 10° 309° (NW) 2,435 6.1 -10.5°
Maximum altitude 19:32:39 23° 259° (WSW) 1,696 4.1 -11.0°
Drops below altitude 10° 19:36:53 10° 208° (SSW) 2,419 4.4 -11.5°
Sets 19:39:46 0° 194° (SSW) 3,348 5.0 -11.8°
